Time,TemperatureF,DewpointF,PressureIn,WindDirection,WindDirectionDegrees,WindSpeedMPH,WindSpeedGustMPH,Humidity,HourlyPrecipIn,Conditions,Clouds,dailyrainin,SoftwareType,DateUTC
2013-05-17 02:02:00,54.0,53.0,29.91,SSE,153,3.0,7.0,96,40.93,,,-99.99,,2013-05-17 09:02:00,
2013-05-17 02:12:00,54.0,53.0,29.91,SSE,153,3.0,7.0,96,40.93,,,-99.99,,2013-05-17 09:12:00,
2013-05-17 02:22:00,54.0,53.0,29.91,SSE,153,3.0,7.0,96,40.93,,,-99.99,,2013-05-17 09:22:00,
2013-05-17 02:33:00,54.0,53.0,29.91,SSE,153,3.0,7.0,96,40.93,,,-99.99,,2013-05-17 09:33:00,
2013-05-17 03:54:00,53.0,52.0,29.91,SSW,203,1.0,10.0,97,41.00,,,-99.99,,2013-05-17 10:54:00,
2013-05-17 04:02:00,53.0,52.0,29.91,SSW,203,1.0,10.0,97,41.00,,,-99.99,,2013-05-17 11:02:00,
2013-05-17 04:12:00,53.0,52.0,29.91,SSW,203,1.0,10.0,97,41.00,,,-99.99,,2013-05-17 11:12:00,
2013-05-17 04:22:00,53.0,52.0,29.91,SSW,203,1.0,10.0,97,41.00,,,-99.99,,2013-05-17 11:22:00,
2013-05-17 05:03:00,53.0,52.0,29.92,North,0,0.0,0.0,97,41.07,,,-99.99,,2013-05-17 12:03:00,
2013-05-17 05:12:00,53.0,52.0,29.92,North,0,0.0,0.0,97,41.07,,,-99.99,,2013-05-17 12:12:00,
2013-05-17 05:23:00,53.0,52.0,29.92,North,0,0.0,0.0,97,41.08,,,-99.99,,2013-05-17 12:23:00,
2013-05-17 05:32:00,52.0,51.0,29.91,North,0,0.0,0.0,97,41.08,,,-99.99,,2013-05-17 12:32:00,
2013-05-17 05:42:00,52.0,51.0,29.91,North,0,0.0,0.0,97,41.08,,,-99.99,,2013-05-17 12:42:00,
2013-05-17 05:53:00,53.0,52.0,29.92,North,0,0.0,0.0,97,41.08,,,-99.99,,2013-05-17 12:53:00,
2013-05-17 06:03:00,53.0,52.0,29.92,North,0,0.0,0.0,97,41.08,,,-99.99,,2013-05-17 13:03:00,
2013-05-17 06:23:00,52.0,51.0,29.92,North,0,0.0,0.0,97,41.09,,,-99.99,,2013-05-17 13:23:00,
2013-05-17 06:33:00,52.0,51.0,29.92,North,0,0.0,0.0,97,41.09,,,-99.99,,2013-05-17 13:33:00,
2013-05-17 06:42:00,52.0,51.0,29.92,North,0,0.0,0.0,97,41.09,,,-99.99,,2013-05-17 13:42:00,
2013-05-17 06:52:00,52.0,51.0,29.92,North,0,0.0,0.0,97,41.09,,,-99.99,,2013-05-17 13:52:00,
2013-05-17 07:02:00,52.0,51.0,29.93,North,0,0.0,0.0,97,41.10,,,-99.99,,2013-05-17 14:02:00,
2013-05-17 07:12:00,52.0,51.0,29.93,North,0,0.0,0.0,97,41.10,,,-99.99,,2013-05-17 14:12:00,
2013-05-17 07:22:00,52.0,51.0,29.93,North,0,0.0,0.0,97,41.10,,,-99.99,,2013-05-17 14:22:00,
2013-05-17 07:34:00,52.0,51.0,29.93,SSE,149,0.0,3.0,97,41.10,,,-99.99,,2013-05-17 14:34:00,
2013-05-17 07:42:00,52.0,51.0,29.93,SSE,149,0.0,3.0,97,41.10,,,-99.99,,2013-05-17 14:42:00,
2013-05-17 07:53:00,52.0,51.0,29.94,SSW,211,2.0,6.0,97,41.11,,,-99.99,,2013-05-17 14:53:00,
2013-05-17 08:03:00,52.0,51.0,29.94,SSW,211,2.0,6.0,97,41.11,,,-99.99,,2013-05-17 15:03:00,
2013-05-17 08:13:00,52.0,51.0,29.94,SSW,211,2.0,6.0,97,41.11,,,-99.99,,2013-05-17 15:13:00,
2013-05-17 08:25:00,52.0,51.0,29.94,SSW,211,2.0,6.0,97,41.11,,,-99.99,,2013-05-17 15:25:00,
2013-05-17 12:24:00,53.0,50.0,29.96,WSW,238,2.0,7.0,91,41.13,,,-99.99,,2013-05-17 19:24:00,
2013-05-17 13:00:00,53.0,-99.9,29.96,WSW,238,2.0,7.0,91,41.13,,,-99.99,,2013-05-17 20:00:00,
2013-05-17 13:09:00,53.0,50.0,29.96,WSW,238,2.0,7.0,91,41.13,,,-99.99,,2013-05-17 20:09:00,
2013-05-17 13:20:00,53.0,50.0,29.96,WSW,238,2.0,7.0,91,41.13,,,-99.99,,2013-05-17 20:20:00,
2013-05-17 14:44:00,58.0,51.0,29.97,SW,217,2.0,5.0,78,41.13,,,-99.99,,2013-05-17 21:44:00,
2013-05-17 15:06:00,58.0,51.0,29.97,SW,217,2.0,5.0,78,41.13,,,-99.99,,2013-05-17 22:06:00,
2013-05-17 15:17:00,58.0,51.0,29.97,SW,217,2.0,5.0,78,41.13,,,-99.99,,2013-05-17 22:17:00,
2013-05-17 15:28:00,58.0,51.0,29.97,SW,217,2.0,5.0,78,41.13,,,-99.99,,2013-05-17 22:28:00,
2013-05-17 15:38:00,58.0,51.0,29.97,SW,217,2.0,5.0,78,41.13,,,-99.99,,2013-05-17 22:38:00,
2013-05-17 19:53:00,56.0,52.0,29.97,WSW,252,2.0,10.0,88,41.13,,,-99.99,,2013-05-18 02:53:00,
2013-05-17 20:02:00,56.0,52.0,29.97,WSW,252,2.0,10.0,88,41.13,,,-99.99,,2013-05-18 03:02:00,
2013-05-17 20:12:00,56.0,52.0,29.97,WSW,252,2.0,10.0,88,41.13,,,-99.99,,2013-05-18 03:12:00,
2013-05-17 20:22:00,55.0,52.0,29.98,SSE,152,2.0,10.0,89,41.13,,,-99.99,,2013-05-18 03:22:00,
2013-05-17 20:32:00,55.0,52.0,29.98,South,179,3.0,8.0,91,41.13,,,-99.99,,2013-05-18 03:32:00,
2013-05-17 20:43:00,55.0,52.0,29.98,South,179,3.0,8.0,91,41.13,,,-99.99,,2013-05-18 03:43:00,
2013-05-17 20:53:00,55.0,52.0,29.98,South,179,3.0,8.0,91,41.13,,,-99.99,,2013-05-18 03:53:00,
2013-05-17 21:02:00,54.0,51.0,29.99,South,176,1.0,9.0,91,41.13,,,-99.99,,2013-05-18 04:02:00,
2013-05-17 21:12:00,54.0,51.0,29.99,South,176,1.0,9.0,91,41.13,,,-99.99,,2013-05-18 04:12:00,
2013-05-17 21:23:00,54.0,51.0,29.99,South,176,1.0,9.0,91,41.13,,,-99.99,,2013-05-18 04:23:00,
2013-05-17 21:32:00,54.0,51.0,29.99,South,176,1.0,9.0,91,41.13,,,-99.99,,2013-05-18 04:32:00,
2013-05-17 21:42:00,54.0,51.0,29.99,South,176,1.0,9.0,91,41.13,,,-99.99,,2013-05-18 04:42:00,
2013-05-17 22:22:00,54.0,52.0,30.01,North,0,0.0,0.0,92,41.13,,,-99.99,,2013-05-18 05:22:00,
2013-05-17 22:31:00,54.0,52.0,30.01,North,0,0.0,0.0,92,41.13,,,-99.99,,2013-05-18 05:31:00,
2013-05-17 22:41:00,54.0,52.0,30.01,North,0,0.0,0.0,92,41.13,,,-99.99,,2013-05-18 05:41:00,
2013-05-17 22:51:00,53.0,51.0,30.01,South,190,1.0,7.0,93,41.13,,,-99.99,,2013-05-18 05:51:00,
2013-05-17 23:02:00,53.0,51.0,30.01,South,190,1.0,7.0,93,41.13,,,-99.99,,2013-05-18 06:02:00,
2013-05-17 23:11:00,53.0,51.0,30.01,South,190,1.0,7.0,93,41.13,,,-99.99,,2013-05-18 06:11:00,
2013-05-17 23:21:00,53.0,51.0,30.02,North,359,2.0,8.0,94,41.13,,,-99.99,,2013-05-18 06:21:00,
2013-05-17 23:31:00,53.0,51.0,30.02,North,359,2.0,8.0,94,41.13,,,-99.99,,2013-05-18 06:31:00,
2013-05-17 23:42:00,53.0,51.0,30.02,North,359,2.0,8.0,94,41.13,,,-99.99,,2013-05-18 06:42:00,
2013-05-17 23:51:00,53.0,51.0,30.02,North,359,2.0,8.0,94,41.13,,,-99.99,,2013-05-18 06:51:00,